Home > Time Zones > World Clock > Weather > Italy > Turin > Past weeks

Flag for Italy Weather past 2 weeks in Turin, Italy

Now
54 °F

Sunny.


Feels Like: 54 °F
Forecast: 47 / 54 °F
Wind: No wind

Location: Torino / Bric Della Croce


UV Index: 3 (Moderate)

Visibility: 10 mi


Pressure: 29.86 "Hg

Humidity: 41%

Dew point: 30 °F

Location of TurinLocation

Historic Weather in Turin

°F

Turin temperature yesterday

Maximum temperature yesterday: 63 °F (at 5:55 PM)
Minimum temperature yesterday: 43 °F (at 7:55 AM)
Average temperature yesterday: 53 °F

Past Weeks' High & Low Weather Summary

 TemperatureHumidityPressure
High68 °F (Apr 6, 4:55 PM)100% (Apr 3, 8:55 AM)30.15 "Hg (Apr 3, 8:55 AM)
Low43 °F (Apr 17, 7:55 AM)15% (Apr 15, 6:55 PM)29.71 "Hg (Apr 4, 5:55 PM)
Average57 °F65%29.98 "Hg
* Reported Apr 3 8:55 AM — Apr 18 8:55 AM, Turin, Weather by CustomWeather, © 2014

Note: Actual official high and low records may vary slightly from our data, if they occured in-between our weather recording intervals... More about our weather records

Advertising

Historic Weather Conditions — Data for Previous 24 hours

 ConditionsComfort  
Time TempWeatherWind HumidityBarometerVisibility
8:55 AM
Apr 18
54 °FSunny.No wind41%29.86 "Hg10 mi
7:55 AM54 °FSunny.No wind41%29.86 "Hg10 mi
6:55 AM54 °FClear.No wind41%29.86 "Hg10 mi
5:55 AM54 °FClear.No wind41%29.89 "Hg10 mi
4:55 AM54 °FClear.No wind44%29.92 "Hg10 mi
3:55 AM54 °FClear.No wind41%29.92 "Hg10 mi
2:55 AM54 °FClear.3 mph38%29.95 "Hg10 mi
1:55 AM54 °FClear.6 mph38%29.95 "Hg10 mi
12:55 AM54 °FClear.8 mph41%29.95 "Hg10 mi
11:55 PM
Apr 17
54 °FClear.6 mph44%29.95 "Hg10 mi
10:55 PM55 °FClear.No wind41%29.95 "Hg10 mi
9:55 PM55 °FClear.3 mph41%29.95 "Hg10 mi
8:55 PM57 °FSunny.5 mph39%29.95 "Hg10 mi
7:55 PM61 °FSunny.3 mph39%29.98 "Hg10 mi
5:55 PM63 °FSunny.No wind39%29.98 "Hg10 mi
4:55 PM61 °FSunny.No wind39%30.01 "Hg10 mi
3:55 PM59 °FSunny.No wind42%30.01 "Hg10 mi
2:55 PM59 °FSunny.No wind42%30.04 "Hg10 mi
1:55 PM57 °FSunny.3 mph44%30.07 "Hg10 mi
12:55 PM54 °FSunny.No wind54%30.09 "Hg10 mi
11:55 AM50 °FSunny.No wind62%30.09 "Hg10 mi
10:55 AM48 °FSunny.No wind62%30.09 "Hg10 mi
Weather by CustomWeather, © 2014

See weather overview